Year,Month,Day,Hour,Minute,Value (Times are PST for temperature in C)
2007,07,30,00,00,13.80
2007,07,30,00,01,13.80
2007,07,30,00,02,13.80
2007,07,30,00,03,13.80
2007,07,30,00,04,13.80
2007,07,30,00,05,13.80
2007,07,30,00,06,13.80
2007,07,30,00,07,13.70
2007,07,30,00,08,13.70
2007,07,30,00,09,13.70
2007,07,30,00,10,13.70
2007,07,30,00,11,13.70
2007,07,30,00,12,13.70
2007,07,30,00,13,13.70
2007,07,30,00,14,13.70
2007,07,30,00,15,13.70
2007,07,30,00,16,13.70
2007,07,30,00,17,13.70
2007,07,30,00,18,13.70
2007,07,30,00,19,13.70
2007,07,30,00,20,13.70
2007,07,30,00,21,13.70
2007,07,30,00,22,13.70
2007,07,30,00,23,13.70
2007,07,30,00,24,13.70
2007,07,30,00,25,13.60
2007,07,30,00,26,13.60
2007,07,30,00,27,13.60
2007,07,30,00,28,13.60
2007,07,30,00,29,13.60
2007,07,30,00,30,13.60
2007,07,30,00,31,13.60
2007,07,30,00,32,13.60
2007,07,30,00,33,13.60
2007,07,30,00,34,13.60
2007,07,30,00,35,13.50
2007,07,30,00,36,13.50
2007,07,30,00,37,13.50
2007,07,30,00,38,13.50
2007,07,30,00,39,13.40
2007,07,30,00,40,13.40
2007,07,30,00,41,13.40
2007,07,30,00,42,13.30
2007,07,30,00,43,13.30
2007,07,30,00,44,13.20
2007,07,30,00,45,13.20
2007,07,30,00,46,13.10
2007,07,30,00,47,13.10
2007,07,30,00,48,13.00
2007,07,30,00,49,12.90
2007,07,30,00,50,12.90
2007,07,30,00,51,12.80
2007,07,30,00,52,12.80
2007,07,30,00,53,12.80
2007,07,30,00,54,12.70
2007,07,30,00,55,12.70
2007,07,30,00,56,12.70
2007,07,30,00,57,12.60
2007,07,30,00,58,12.60
2007,07,30,00,59,12.50
2007,07,30,01,00,12.50
2007,07,30,01,01,12.40
2007,07,30,01,02,12.40
2007,07,30,01,03,12.40
2007,07,30,01,04,12.30
2007,07,30,01,05,12.30
2007,07,30,01,06,12.30
2007,07,30,01,07,12.30
2007,07,30,01,08,12.30
2007,07,30,01,09,12.20
2007,07,30,01,10,12.20
2007,07,30,01,11,12.20
2007,07,30,01,12,12.20
2007,07,30,01,13,12.20
2007,07,30,01,14,12.20
2007,07,30,01,15,12.20
2007,07,30,01,16,12.10
2007,07,30,01,17,12.10
2007,07,30,01,18,12.10
2007,07,30,01,19,12.10
2007,07,30,01,20,12.10
2007,07,30,01,21,12.10
2007,07,30,01,22,12.10
2007,07,30,01,23,12.00
2007,07,30,01,24,12.00
2007,07,30,01,25,12.00
2007,07,30,01,26,12.00
2007,07,30,01,27,11.90
2007,07,30,01,28,11.90
2007,07,30,01,29,11.90
2007,07,30,01,30,11.90
2007,07,30,01,31,11.90
2007,07,30,01,32,11.80
2007,07,30,01,33,11.80
2007,07,30,01,34,11.80
2007,07,30,01,35,11.80
2007,07,30,01,36,11.70
2007,07,30,01,37,11.70
2007,07,30,01,38,11.70
2007,07,30,01,39,11.70
2007,07,30,01,40,11.70
2007,07,30,01,41,11.70
2007,07,30,01,42,11.60
2007,07,30,01,43,11.60
2007,07,30,01,44,11.60
2007,07,30,01,45,11.60
2007,07,30,01,46,11.50
2007,07,30,01,47,11.50
2007,07,30,01,48,11.50
2007,07,30,01,49,11.40
2007,07,30,01,50,11.40
2007,07,30,01,51,11.40
2007,07,30,01,52,11.30
2007,07,30,01,53,11.30
2007,07,30,01,54,11.30
2007,07,30,01,55,11.30
2007,07,30,01,56,11.30
2007,07,30,01,57,11.20
2007,07,30,01,58,11.20
2007,07,30,01,59,11.20
2007,07,30,02,00,11.20
2007,07,30,02,01,11.10
2007,07,30,02,02,11.10
2007,07,30,02,03,11.10
2007,07,30,02,04,11.10
2007,07,30,02,05,11.00
2007,07,30,02,06,11.00
2007,07,30,02,07,11.00
2007,07,30,02,08,11.00
2007,07,30,02,09,10.90
2007,07,30,02,10,10.90
2007,07,30,02,11,10.90
2007,07,30,02,12,10.90
2007,07,30,02,13,10.90
2007,07,30,02,14,10.80
2007,07,30,02,15,10.80
2007,07,30,02,16,10.80
2007,07,30,02,17,10.80
2007,07,30,02,18,10.80
2007,07,30,02,19,10.80
2007,07,30,02,20,10.80
2007,07,30,02,21,10.80
2007,07,30,02,22,10.80
2007,07,30,02,23,10.80
2007,07,30,02,24,10.80
2007,07,30,02,25,10.80
2007,07,30,02,26,10.70
2007,07,30,02,27,10.70
2007,07,30,02,28,10.70
2007,07,30,02,29,10.70
2007,07,30,02,30,10.70
2007,07,30,02,31,10.70
2007,07,30,02,32,10.70
2007,07,30,02,33,10.60
2007,07,30,02,34,10.60
2007,07,30,02,35,10.60
2007,07,30,02,36,10.60
2007,07,30,02,37,10.60
2007,07,30,02,38,10.60
2007,07,30,02,39,10.70
2007,07,30,02,40,10.70
2007,07,30,02,41,10.70
2007,07,30,02,42,10.70
2007,07,30,02,43,10.70
2007,07,30,02,44,10.70
2007,07,30,02,45,10.70
2007,07,30,02,46,10.70
2007,07,30,02,47,10.70
2007,07,30,02,48,10.70
2007,07,30,02,49,10.70
2007,07,30,02,50,10.70
2007,07,30,02,51,10.70
2007,07,30,02,52,10.70
2007,07,30,02,53,10.70
2007,07,30,02,54,10.70
2007,07,30,02,55,10.70
2007,07,30,02,56,10.70
2007,07,30,02,57,10.70
2007,07,30,02,58,10.70
2007,07,30,02,59,10.70
2007,07,30,03,00,10.70
2007,07,30,03,01,10.70
2007,07,30,03,02,10.70
2007,07,30,03,03,10.70
2007,07,30,03,04,10.70
2007,07,30,03,05,10.70
2007,07,30,03,06,10.70
2007,07,30,03,07,10.60
2007,07,30,03,08,10.60
2007,07,30,03,09,10.60
2007,07,30,03,10,10.60
2007,07,30,03,11,10.60
2007,07,30,03,12,10.60
2007,07,30,03,13,10.50
2007,07,30,03,14,10.50
2007,07,30,03,15,10.40
2007,07,30,03,16,10.40
2007,07,30,03,17,10.40
2007,07,30,03,18,10.30
2007,07,30,03,19,10.30
2007,07,30,03,20,10.20
2007,07,30,03,21,10.20
2007,07,30,03,22,10.20
2007,07,30,03,23,10.20
2007,07,30,03,24,10.20
2007,07,30,03,25,10.20
2007,07,30,03,26,10.10
2007,07,30,03,27,10.10
2007,07,30,03,28,10.10
2007,07,30,03,29,10.10
2007,07,30,03,30,10.10
2007,07,30,03,31,10.10
2007,07,30,03,32,10.10
2007,07,30,03,33,10.10
2007,07,30,03,34,10.10
2007,07,30,03,35,10.10
2007,07,30,03,36,10.10
2007,07,30,03,37,10.10
2007,07,30,03,38,10.10
2007,07,30,03,39,10.20
2007,07,30,03,40,10.10
2007,07,30,03,41,10.20
2007,07,30,03,42,10.10
2007,07,30,03,43,10.10
2007,07,30,03,44,10.10
2007,07,30,03,45,10.10
2007,07,30,03,46,10.10
2007,07,30,03,47,10.10
2007,07,30,03,48,10.10
2007,07,30,03,49,10.10
2007,07,30,03,50,10.00
2007,07,30,03,51,10.00
2007,07,30,03,52,10.00
2007,07,30,03,53,10.00
2007,07,30,03,54,9.90
2007,07,30,03,55,9.90
2007,07,30,03,56,9.90
2007,07,30,03,57,9.90
2007,07,30,03,58,9.90
2007,07,30,03,59,9.90
2007,07,30,04,00,9.90
2007,07,30,04,01,9.80
2007,07,30,04,02,9.80
2007,07,30,04,03,9.80
2007,07,30,04,04,9.80
2007,07,30,04,05,9.80
2007,07,30,04,06,9.80
2007,07,30,04,07,9.80
2007,07,30,04,08,9.80
2007,07,30,04,09,9.80
2007,07,30,04,10,9.80
2007,07,30,04,11,9.80
2007,07,30,04,12,9.80
2007,07,30,04,13,9.80
2007,07,30,04,14,9.80
2007,07,30,04,15,9.80
2007,07,30,04,16,9.80
2007,07,30,04,17,9.80
2007,07,30,04,18,9.80
2007,07,30,04,19,9.80
2007,07,30,04,20,9.80
2007,07,30,04,21,9.80
2007,07,30,04,22,9.70
2007,07,30,04,23,9.70
2007,07,30,04,24,9.70
2007,07,30,04,25,9.70
2007,07,30,04,26,9.70
2007,07,30,04,27,9.70
2007,07,30,04,28,9.70
2007,07,30,04,29,9.70
2007,07,30,04,30,9.70
2007,07,30,04,31,9.70
2007,07,30,04,32,9.70
2007,07,30,04,33,9.60
2007,07,30,04,34,9.60
2007,07,30,04,35,9.60
2007,07,30,04,36,9.60
2007,07,30,04,37,9.60
2007,07,30,04,38,9.60
2007,07,30,04,39,9.60
2007,07,30,04,40,9.60
2007,07,30,04,41,9.60
2007,07,30,04,42,9.50
2007,07,30,04,43,9.50
2007,07,30,04,44,9.50
2007,07,30,04,45,9.40
2007,07,30,04,46,9.40
2007,07,30,04,47,9.40
2007,07,30,04,48,9.40
2007,07,30,04,49,9.30
2007,07,30,04,50,9.30
2007,07,30,04,51,9.30
2007,07,30,04,52,9.30
2007,07,30,04,53,9.30
2007,07,30,04,54,9.30
2007,07,30,04,55,9.30
2007,07,30,04,56,9.30
2007,07,30,04,57,9.30
2007,07,30,04,58,9.20
2007,07,30,04,59,9.20
2007,07,30,05,00,9.20
2007,07,30,05,01,9.20
2007,07,30,05,02,9.20
2007,07,30,05,03,9.20
2007,07,30,05,04,9.20
2007,07,30,05,05,9.20
2007,07,30,05,06,9.20
2007,07,30,05,07,9.30
2007,07,30,05,08,9.30
2007,07,30,05,09,9.30
2007,07,30,05,10,9.30
2007,07,30,05,11,9.30
2007,07,30,05,12,9.30
2007,07,30,05,13,9.30
2007,07,30,05,14,9.30
2007,07,30,05,15,9.30
2007,07,30,05,16,9.30
2007,07,30,05,17,9.30
2007,07,30,05,18,9.30
2007,07,30,05,19,9.30
2007,07,30,05,20,9.20
2007,07,30,05,21,9.20
2007,07,30,05,22,9.20
2007,07,30,05,23,9.20
2007,07,30,05,24,9.30
2007,07,30,05,25,9.30
2007,07,30,05,26,9.30
2007,07,30,05,27,9.30
2007,07,30,05,28,9.30
2007,07,30,05,29,9.30
2007,07,30,05,30,9.30
2007,07,30,05,31,9.30
2007,07,30,05,32,9.30
2007,07,30,05,33,9.20
2007,07,30,05,34,9.20
2007,07,30,05,35,9.20
2007,07,30,05,36,9.20
2007,07,30,05,37,9.10
2007,07,30,05,38,9.10
2007,07,30,05,39,9.10
2007,07,30,05,40,9.10
2007,07,30,05,41,9.00
2007,07,30,05,42,9.00
2007,07,30,05,43,9.00
2007,07,30,05,44,9.00
2007,07,30,05,45,9.00
2007,07,30,05,46,8.90
2007,07,30,05,47,8.90
2007,07,30,05,48,8.90
2007,07,30,05,49,8.90
2007,07,30,05,50,8.90
2007,07,30,05,51,8.90
2007,07,30,05,52,8.90
2007,07,30,05,53,8.90
2007,07,30,05,54,8.90
2007,07,30,05,55,8.90
2007,07,30,05,56,8.90
2007,07,30,05,57,8.90
2007,07,30,05,58,8.90
2007,07,30,05,59,8.90
2007,07,30,06,00,8.90
2007,07,30,06,01,8.90
2007,07,30,06,02,8.80
2007,07,30,06,03,8.90
2007,07,30,06,04,8.90
2007,07,30,06,05,8.90
2007,07,30,06,06,8.90
2007,07,30,06,07,8.90
2007,07,30,06,08,8.90
2007,07,30,06,09,9.00
2007,07,30,06,10,9.00
2007,07,30,06,11,9.00
2007,07,30,06,12,9.00
2007,07,30,06,13,9.00
2007,07,30,06,14,9.00
2007,07,30,06,15,9.00
2007,07,30,06,16,9.00
2007,07,30,06,17,9.00
2007,07,30,06,18,9.00
2007,07,30,06,19,9.00
2007,07,30,06,20,9.00
2007,07,30,06,21,9.00
2007,07,30,06,22,9.00
2007,07,30,06,23,9.00
2007,07,30,06,24,9.00
2007,07,30,06,25,9.00
2007,07,30,06,26,9.00
2007,07,30,06,27,9.00
2007,07,30,06,28,9.00
2007,07,30,06,29,9.00
2007,07,30,06,30,9.00
2007,07,30,06,31,9.00
2007,07,30,06,32,9.00
2007,07,30,06,33,9.00
2007,07,30,06,34,9.00
2007,07,30,06,35,9.00
2007,07,30,06,36,9.10
2007,07,30,06,37,9.10
2007,07,30,06,38,9.10
2007,07,30,06,39,9.10
2007,07,30,06,40,9.20
2007,07,30,06,41,9.20
2007,07,30,06,42,9.20
2007,07,30,06,43,9.20
2007,07,30,06,44,9.30
2007,07,30,06,45,9.30
2007,07,30,06,46,9.30
2007,07,30,06,47,9.30
2007,07,30,06,48,9.40
2007,07,30,06,49,9.40
2007,07,30,06,50,9.40
2007,07,30,06,51,9.40
2007,07,30,06,52,9.50
2007,07,30,06,53,9.50
2007,07,30,06,54,9.60
2007,07,30,06,55,9.60
2007,07,30,06,56,9.60
2007,07,30,06,57,9.70
2007,07,30,06,58,9.80
2007,07,30,06,59,9.80
2007,07,30,07,00,9.90
2007,07,30,07,01,9.90
2007,07,30,07,02,10.00
2007,07,30,07,03,10.00
2007,07,30,07,04,10.10
2007,07,30,07,05,10.10
2007,07,30,07,06,10.20
2007,07,30,07,07,10.20
2007,07,30,07,08,10.30
2007,07,30,07,09,10.30
2007,07,30,07,10,10.40
2007,07,30,07,11,10.40
2007,07,30,07,12,10.50
2007,07,30,07,13,10.50
2007,07,30,07,14,10.60
2007,07,30,07,15,10.60
2007,07,30,07,16,10.80
2007,07,30,07,17,10.80
2007,07,30,07,18,11.00
2007,07,30,07,19,11.10
2007,07,30,07,20,11.20
2007,07,30,07,21,11.30
2007,07,30,07,22,11.50
2007,07,30,07,23,11.60
2007,07,30,07,24,11.80
2007,07,30,07,25,11.90
2007,07,30,07,26,12.10
2007,07,30,07,27,12.20
2007,07,30,07,28,12.20
2007,07,30,07,29,12.30
2007,07,30,07,30,12.40
2007,07,30,07,31,12.50
2007,07,30,07,32,12.60
2007,07,30,07,33,12.60
2007,07,30,07,34,12.70
2007,07,30,07,35,12.70
2007,07,30,07,36,12.80
2007,07,30,07,37,12.80
2007,07,30,07,38,12.80
2007,07,30,07,39,12.80
2007,07,30,07,40,12.80
2007,07,30,07,41,12.80
2007,07,30,07,42,12.90
2007,07,30,07,43,12.90
2007,07,30,07,44,12.90
2007,07,30,07,45,12.90
2007,07,30,07,46,13.00
2007,07,30,07,47,13.00
2007,07,30,07,48,13.10
2007,07,30,07,49,13.20
2007,07,30,07,50,13.20
2007,07,30,07,51,13.40
2007,07,30,07,52,13.50
2007,07,30,07,53,13.50
2007,07,30,07,54,13.60
2007,07,30,07,55,13.70
2007,07,30,07,56,13.80
2007,07,30,07,57,13.90
2007,07,30,07,58,13.90
2007,07,30,07,59,14.00
2007,07,30,08,00,14.00
2007,07,30,08,01,14.10
2007,07,30,08,02,14.10
2007,07,30,08,03,14.20
2007,07,30,08,04,14.20
2007,07,30,08,05,14.30
2007,07,30,08,06,14.30
2007,07,30,08,07,14.40
2007,07,30,08,08,14.40
2007,07,30,08,09,14.50
2007,07,30,08,10,14.50
2007,07,30,08,11,14.60
2007,07,30,08,12,14.70
2007,07,30,08,13,14.70
2007,07,30,08,14,14.80
2007,07,30,08,15,14.80
2007,07,30,08,16,14.80
2007,07,30,08,17,14.80
2007,07,30,08,18,14.90
2007,07,30,08,19,14.90
2007,07,30,08,20,14.90
2007,07,30,08,21,15.00
2007,07,30,08,22,15.00
2007,07,30,08,23,15.00
2007,07,30,08,24,15.00
2007,07,30,08,25,15.00
2007,07,30,08,26,15.00
2007,07,30,08,27,15.00
2007,07,30,08,28,15.20
2007,07,30,08,29,15.30
2007,07,30,08,30,15.40
2007,07,30,08,31,15.60
2007,07,30,08,32,15.70
2007,07,30,08,33,15.80
2007,07,30,08,34,15.90
2007,07,30,08,35,16.10
2007,07,30,08,36,16.30
2007,07,30,08,37,16.40
2007,07,30,08,38,16.50
2007,07,30,08,39,16.70
2007,07,30,08,40,16.80
2007,07,30,08,41,16.90
2007,07,30,08,42,16.90
2007,07,30,08,43,16.90
2007,07,30,08,44,17.00
2007,07,30,08,45,17.20
2007,07,30,08,46,17.30
2007,07,30,08,47,17.30
2007,07,30,08,48,17.50
2007,07,30,08,49,17.60
2007,07,30,08,50,17.60
2007,07,30,08,51,17.70
2007,07,30,08,52,17.70
2007,07,30,08,53,17.70
2007,07,30,08,54,17.60
2007,07,30,08,55,17.60
2007,07,30,08,56,17.50
2007,07,30,08,57,17.50
2007,07,30,08,58,17.50
2007,07,30,08,59,17.40
2007,07,30,09,00,17.40
2007,07,30,09,01,17.50
2007,07,30,09,02,17.50
2007,07,30,09,03,17.50
2007,07,30,09,04,17.50
2007,07,30,09,05,17.50
2007,07,30,09,06,17.60
2007,07,30,09,07,17.60
2007,07,30,09,08,17.60
2007,07,30,09,09,17.70
2007,07,30,09,10,17.70
2007,07,30,09,11,17.70
2007,07,30,09,12,17.70
2007,07,30,09,13,17.70
2007,07,30,09,14,17.60
2007,07,30,09,15,17.60
2007,07,30,09,16,17.60
2007,07,30,09,17,17.60
2007,07,30,09,18,17.70
2007,07,30,09,19,17.70
2007,07,30,09,20,17.70
2007,07,30,09,21,17.80
2007,07,30,09,22,17.80
2007,07,30,09,23,17.90
2007,07,30,09,24,17.90
2007,07,30,09,25,17.90
2007,07,30,09,26,18.00
2007,07,30,09,27,18.00
2007,07,30,09,28,17.90
2007,07,30,09,29,18.00
2007,07,30,09,30,18.00
2007,07,30,09,31,17.90
2007,07,30,09,32,17.90
2007,07,30,09,33,17.90
2007,07,30,09,34,17.90
2007,07,30,09,35,17.90
2007,07,30,09,36,17.90
2007,07,30,09,37,18.00
2007,07,30,09,38,18.00
2007,07,30,09,39,18.10
2007,07,30,09,40,18.20
2007,07,30,09,41,18.20
2007,07,30,09,42,18.20
2007,07,30,09,43,18.30
2007,07,30,09,44,18.30
2007,07,30,09,45,18.30
2007,07,30,09,46,18.20
2007,07,30,09,47,18.30
2007,07,30,09,48,18.30
2007,07,30,09,49,18.30
2007,07,30,09,50,18.20
2007,07,30,09,51,18.30
2007,07,30,09,52,18.30
2007,07,30,09,53,18.30
2007,07,30,09,54,18.30
2007,07,30,09,55,18.40
2007,07,30,09,56,18.50
2007,07,30,09,57,18.50
2007,07,30,09,58,18.60
2007,07,30,09,59,18.70
2007,07,30,10,00,18.80
2007,07,30,10,01,18.90
2007,07,30,10,02,19.00
2007,07,30,10,03,19.10
2007,07,30,10,04,19.00
2007,07,30,10,05,18.90
2007,07,30,10,06,18.80
2007,07,30,10,07,18.70
2007,07,30,10,08,18.70
2007,07,30,10,09,18.70
2007,07,30,10,10,18.80
2007,07,30,10,11,18.80
2007,07,30,10,12,18.70
2007,07,30,10,13,18.60
2007,07,30,10,14,18.60
2007,07,30,10,15,18.60
2007,07,30,10,16,18.70
2007,07,30,10,17,18.70
2007,07,30,10,18,18.70
2007,07,30,10,19,18.70
2007,07,30,10,20,18.70
2007,07,30,10,21,18.70
2007,07,30,10,22,18.70
2007,07,30,10,23,18.70
2007,07,30,10,24,18.80
2007,07,30,10,25,18.90
2007,07,30,10,26,19.00
2007,07,30,10,27,18.90
2007,07,30,10,28,18.90
2007,07,30,10,29,18.90
2007,07,30,10,30,18.80
2007,07,30,10,31,18.80
2007,07,30,10,32,18.70
2007,07,30,10,33,18.80
2007,07,30,10,34,18.80
2007,07,30,10,35,18.90
2007,07,30,10,36,18.90
2007,07,30,10,37,18.80
2007,07,30,10,38,18.80
2007,07,30,10,39,18.80
2007,07,30,10,40,18.80
2007,07,30,10,41,18.90
2007,07,30,10,42,19.00
2007,07,30,10,43,19.10
2007,07,30,10,44,19.10
2007,07,30,10,45,19.10
2007,07,30,10,46,19.20
2007,07,30,10,47,19.30
2007,07,30,10,48,19.30
2007,07,30,10,49,19.10
2007,07,30,10,50,19.10
2007,07,30,10,51,19.20
2007,07,30,10,52,19.20
2007,07,30,10,53,19.20
2007,07,30,10,54,19.20
2007,07,30,10,55,19.40
2007,07,30,10,56,19.40
2007,07,30,10,57,19.50
2007,07,30,10,58,19.60
2007,07,30,10,59,19.60
2007,07,30,11,00,19.50
2007,07,30,11,01,19.40
2007,07,30,11,02,19.30
2007,07,30,11,03,19.40
2007,07,30,11,04,19.30
2007,07,30,11,05,19.40
2007,07,30,11,06,19.40
2007,07,30,11,07,19.40
2007,07,30,11,08,19.30
2007,07,30,11,09,19.20
2007,07,30,11,10,19.10
2007,07,30,11,11,19.20
2007,07,30,11,12,19.30
2007,07,30,11,13,19.30
2007,07,30,11,14,19.30
2007,07,30,11,15,19.40
2007,07,30,11,16,19.50
2007,07,30,11,17,19.50
2007,07,30,11,18,19.50
2007,07,30,11,19,19.50
2007,07,30,11,20,19.60
2007,07,30,11,21,19.70
2007,07,30,11,22,19.70
2007,07,30,11,23,19.80
2007,07,30,11,24,19.80
2007,07,30,11,25,19.70
2007,07,30,11,26,19.80
2007,07,30,11,27,19.70
2007,07,30,11,28,19.70
2007,07,30,11,29,19.70
2007,07,30,11,30,19.60
2007,07,30,11,31,19.60
2007,07,30,11,32,19.50
2007,07,30,11,33,19.60
2007,07,30,11,34,19.70
2007,07,30,11,35,19.60
2007,07,30,11,36,19.40
2007,07,30,11,37,19.60
2007,07,30,11,38,19.80
2007,07,30,11,39,19.80
2007,07,30,11,40,19.80
2007,07,30,11,41,19.80
2007,07,30,11,42,19.80
2007,07,30,11,43,19.70
2007,07,30,11,44,19.80
2007,07,30,11,45,19.80
2007,07,30,11,46,19.80
2007,07,30,11,47,19.80
2007,07,30,11,48,19.80
2007,07,30,11,49,19.80
2007,07,30,11,50,19.80
2007,07,30,11,51,19.80
2007,07,30,11,52,19.80
2007,07,30,11,53,19.80
2007,07,30,11,54,19.80
2007,07,30,11,55,19.90
2007,07,30,11,56,19.80
2007,07,30,11,57,19.70
2007,07,30,11,58,19.80
2007,07,30,11,59,19.80
2007,07,30,12,00,19.90
2007,07,30,12,01,20.00
2007,07,30,12,02,20.10
2007,07,30,12,03,20.20
2007,07,30,12,04,20.30
2007,07,30,12,05,20.30
2007,07,30,12,06,20.40
2007,07,30,12,07,20.50
2007,07,30,12,08,20.50
2007,07,30,12,09,20.30
2007,07,30,12,10,20.20
2007,07,30,12,11,20.00
2007,07,30,12,12,19.90
2007,07,30,12,13,19.90
2007,07,30,12,14,20.00
2007,07,30,12,15,20.10
2007,07,30,12,16,20.20
2007,07,30,12,17,20.20
2007,07,30,12,18,20.20
2007,07,30,12,19,20.20
2007,07,30,12,20,20.20
2007,07,30,12,21,20.20
2007,07,30,12,22,20.20
2007,07,30,12,23,20.30
2007,07,30,12,24,20.20
2007,07,30,12,25,20.20
2007,07,30,12,26,20.20
2007,07,30,12,27,20.30
2007,07,30,12,28,20.40
2007,07,30,12,29,20.50
2007,07,30,12,30,20.50
2007,07,30,12,31,20.40
2007,07,30,12,32,20.40
2007,07,30,12,33,20.40
2007,07,30,12,34,20.50
2007,07,30,12,35,20.40
2007,07,30,12,36,20.50
2007,07,30,12,37,20.30
2007,07,30,12,38,20.30
2007,07,30,12,39,20.20
2007,07,30,12,40,20.00
2007,07,30,12,41,19.90
2007,07,30,12,42,20.00
2007,07,30,12,43,20.20
2007,07,30,12,44,20.40
2007,07,30,12,45,20.50
2007,07,30,12,46,20.50
2007,07,30,12,47,20.60
2007,07,30,12,48,20.60
2007,07,30,12,49,20.70
2007,07,30,12,50,20.70
2007,07,30,12,51,20.80
2007,07,30,12,52,20.70
2007,07,30,12,53,20.70
2007,07,30,12,54,20.80
2007,07,30,12,55,20.80
2007,07,30,12,56,20.60
2007,07,30,12,57,20.40
2007,07,30,12,58,20.40
2007,07,30,12,59,20.30
2007,07,30,13,00,20.50
2007,07,30,13,01,20.50
2007,07,30,13,02,20.60
2007,07,30,13,03,20.70
2007,07,30,13,04,20.70
2007,07,30,13,05,20.70
2007,07,30,13,06,20.70
2007,07,30,13,07,20.70
2007,07,30,13,08,20.70
2007,07,30,13,09,20.70
2007,07,30,13,10,20.60
2007,07,30,13,11,20.60
2007,07,30,13,12,20.50
2007,07,30,13,13,20.40
2007,07,30,13,14,20.40
2007,07,30,13,15,20.40
2007,07,30,13,16,20.50
2007,07,30,13,17,20.50
2007,07,30,13,18,20.50
2007,07,30,13,19,20.40
2007,07,30,13,20,20.30
2007,07,30,13,21,20.20
2007,07,30,13,22,20.30
2007,07,30,13,23,20.30
2007,07,30,13,24,20.30
2007,07,30,13,25,20.30
2007,07,30,13,26,20.30
2007,07,30,13,27,20.20
2007,07,30,13,28,20.30
2007,07,30,13,29,20.30
2007,07,30,13,30,20.20
2007,07,30,13,31,20.10
2007,07,30,13,32,20.00
2007,07,30,13,33,20.10
2007,07,30,13,34,20.20
2007,07,30,13,35,20.20
2007,07,30,13,36,20.20
2007,07,30,13,37,20.30
2007,07,30,13,38,20.40
2007,07,30,13,39,20.40
2007,07,30,13,40,20.40
2007,07,30,13,41,20.50
2007,07,30,13,42,20.70
2007,07,30,13,43,20.90
2007,07,30,13,44,21.00
2007,07,30,13,45,21.00
2007,07,30,13,46,21.10
2007,07,30,13,47,21.10
2007,07,30,13,48,21.10
2007,07,30,13,49,21.00
2007,07,30,13,50,21.00
2007,07,30,13,51,20.90
2007,07,30,13,52,20.70
2007,07,30,13,53,20.70
2007,07,30,13,54,20.70
2007,07,30,13,55,20.90
2007,07,30,13,56,20.90
2007,07,30,13,57,20.80
2007,07,30,13,58,20.90
2007,07,30,13,59,20.90
2007,07,30,14,00,20.90
2007,07,30,14,01,20.80
2007,07,30,14,02,20.80
2007,07,30,14,03,20.80
2007,07,30,14,04,20.80
2007,07,30,14,05,20.80
2007,07,30,14,06,20.80
2007,07,30,14,07,20.70
2007,07,30,14,08,20.80
2007,07,30,14,09,20.80
2007,07,30,14,10,20.80
2007,07,30,14,11,20.70
2007,07,30,14,12,20.80
2007,07,30,14,13,20.80
2007,07,30,14,14,20.80
2007,07,30,14,15,20.80
2007,07,30,14,16,20.70
2007,07,30,14,17,20.70
2007,07,30,14,18,20.70
2007,07,30,14,19,20.70
2007,07,30,14,20,20.60
2007,07,30,14,21,20.50
2007,07,30,14,22,20.60
2007,07,30,14,23,20.50
2007,07,30,14,24,20.40
2007,07,30,14,25,20.50
2007,07,30,14,26,20.60
2007,07,30,14,27,20.60
2007,07,30,14,28,20.60
2007,07,30,14,29,20.70
2007,07,30,14,30,20.80
2007,07,30,14,31,20.90
2007,07,30,14,32,20.90
2007,07,30,14,33,20.90
2007,07,30,14,34,20.80
2007,07,30,14,35,20.80
2007,07,30,14,36,20.80
2007,07,30,14,37,20.80
2007,07,30,14,38,20.90
2007,07,30,14,39,21.00
2007,07,30,14,40,21.20
2007,07,30,14,41,21.30
2007,07,30,14,42,21.10
2007,07,30,14,43,20.90
2007,07,30,14,44,20.70
2007,07,30,14,45,20.70
2007,07,30,14,46,20.80
2007,07,30,14,47,20.90
2007,07,30,14,48,20.90
2007,07,30,14,49,20.90
2007,07,30,14,50,20.90
2007,07,30,14,51,20.90
2007,07,30,14,52,21.00
2007,07,30,14,53,21.10
2007,07,30,14,54,21.10
2007,07,30,14,55,21.20
2007,07,30,14,56,21.20
2007,07,30,14,57,21.40
2007,07,30,14,58,21.40
2007,07,30,14,59,21.30
2007,07,30,15,00,21.20
2007,07,30,15,01,21.30
2007,07,30,15,02,21.30
2007,07,30,15,03,21.30
2007,07,30,15,04,21.30
2007,07,30,15,05,21.20
2007,07,30,15,06,21.20
2007,07,30,15,07,21.10
2007,07,30,15,08,21.10
2007,07,30,15,09,21.10
2007,07,30,15,10,21.10
2007,07,30,15,11,21.20
2007,07,30,15,12,21.20
2007,07,30,15,13,21.20
2007,07,30,15,14,21.30
2007,07,30,15,15,21.40
2007,07,30,15,16,21.50
2007,07,30,15,17,21.50
2007,07,30,15,18,21.50
2007,07,30,15,19,21.50
2007,07,30,15,20,21.60
2007,07,30,15,21,21.60
2007,07,30,15,22,21.70
2007,07,30,15,23,21.80
2007,07,30,15,24,22.00
2007,07,30,15,25,22.00
2007,07,30,15,26,22.10
2007,07,30,15,27,22.20
2007,07,30,15,28,22.30
2007,07,30,15,29,22.20
2007,07,30,15,30,22.00
2007,07,30,15,31,21.80
2007,07,30,15,32,21.70
2007,07,30,15,33,21.70
2007,07,30,15,34,21.60
2007,07,30,15,35,21.60
2007,07,30,15,36,21.60
2007,07,30,15,37,21.50
2007,07,30,15,38,21.40
2007,07,30,15,39,21.40
2007,07,30,15,40,21.40
2007,07,30,15,41,21.40
2007,07,30,15,42,21.30
2007,07,30,15,43,21.30
2007,07,30,15,44,21.30
2007,07,30,15,45,21.30
2007,07,30,15,46,21.40
2007,07,30,15,47,21.50
2007,07,30,15,48,21.50
2007,07,30,15,49,21.70
2007,07,30,15,50,21.70
2007,07,30,15,51,21.80
2007,07,30,15,52,21.80
2007,07,30,15,53,21.80
2007,07,30,15,54,21.80
2007,07,30,15,55,21.80
2007,07,30,15,56,21.80
2007,07,30,15,57,21.90
2007,07,30,15,58,21.90
2007,07,30,15,59,22.00
2007,07,30,16,00,22.00
2007,07,30,16,01,21.90
2007,07,30,16,02,21.80
2007,07,30,16,03,21.80
2007,07,30,16,04,21.70
2007,07,30,16,05,21.70
2007,07,30,16,06,21.80
2007,07,30,16,07,21.90
2007,07,30,16,08,22.00
2007,07,30,16,09,22.20
2007,07,30,16,10,22.20
2007,07,30,16,11,22.20
2007,07,30,16,12,22.20
2007,07,30,16,13,22.20
2007,07,30,16,14,22.10
2007,07,30,16,15,22.10
2007,07,30,16,16,22.10
2007,07,30,16,17,21.90
2007,07,30,16,18,21.80
2007,07,30,16,19,21.80
2007,07,30,16,20,21.80
2007,07,30,16,21,21.80
2007,07,30,16,22,21.80
2007,07,30,16,23,21.80
2007,07,30,16,24,21.80
2007,07,30,16,25,21.90
2007,07,30,16,26,21.90
2007,07,30,16,27,21.90
2007,07,30,16,28,21.90
2007,07,30,16,29,21.80
2007,07,30,16,30,21.70
2007,07,30,16,31,21.70
2007,07,30,16,32,21.60
2007,07,30,16,33,21.60
2007,07,30,16,34,21.60
2007,07,30,16,35,21.70
2007,07,30,16,36,21.70
2007,07,30,16,37,21.70
2007,07,30,16,38,21.60
2007,07,30,16,39,21.60
2007,07,30,16,40,21.60
2007,07,30,16,41,21.80
2007,07,30,16,42,21.70
2007,07,30,16,43,21.70
2007,07,30,16,44,21.60
2007,07,30,16,45,21.60
2007,07,30,16,46,21.60
2007,07,30,16,47,21.70
2007,07,30,16,48,21.70
2007,07,30,16,49,21.80
2007,07,30,16,50,21.80
2007,07,30,16,51,21.90
2007,07,30,16,52,22.00
2007,07,30,16,53,22.00
2007,07,30,16,54,21.90
2007,07,30,16,55,21.80
2007,07,30,16,56,21.80
2007,07,30,16,57,21.80
2007,07,30,16,58,21.80
2007,07,30,16,59,21.70
2007,07,30,17,00,21.60
2007,07,30,17,01,21.60
2007,07,30,17,02,21.60
2007,07,30,17,03,21.80
2007,07,30,17,04,21.80
2007,07,30,17,05,21.80
2007,07,30,17,06,21.90
2007,07,30,17,07,22.00
2007,07,30,17,08,22.20
2007,07,30,17,09,22.30
2007,07,30,17,10,22.30
2007,07,30,17,11,22.30
2007,07,30,17,12,22.30
2007,07,30,17,13,22.30
2007,07,30,17,14,22.20
2007,07,30,17,15,22.20
2007,07,30,17,16,22.20
2007,07,30,17,17,22.20
2007,07,30,17,18,22.20
2007,07,30,17,19,22.20
2007,07,30,17,20,22.20
2007,07,30,17,21,22.10
2007,07,30,17,22,22.00
2007,07,30,17,23,22.00
2007,07,30,17,24,22.10
2007,07,30,17,25,22.20
2007,07,30,17,26,22.20
2007,07,30,17,27,22.30